Tracking 18852 objects as of 23-Nov-2017
HD Live streaming from Space Station
objects crossing your sky now

OPS 1127 (DMSP 4B F3)

Track OPS 1127 (DMSP 4B F3) now!
10-day predictions
OPS 1127 (DMSP 4B F3) is classified as:


NORAD ID: 4047
Int'l Code: 1969-062A
Perigee: 770.9 km
Apogee: 836.2 km
Inclination: 98.8 °
Period: 100.8 minutes
Semi major axis: 7174 km
RCS: 0.6649 m2 (medium)
Launch date: July 23, 1969
Source: United States (US)
Launch site: AIR FORCE WESTERN TEST RANGE (AFWTR)
aabbcc
Your satellite tracking list
Your tracking list is empty




NASA's NSSDC Master Catalog

Two Line Element Set (TLE):
1  4047U 69062A   17326.56768983 +.00000004 +00000-0 +19597-4 0  9998
2  4047 098.8255 165.1147 0045469 060.0610 300.5074 14.28600287514546
Source of the keplerian elements: AFSPC